This is the latest recevied weather packets stored in our database for station/object KC3UTO. If no packets are shown the sender has not sent any weather packets the latest 10 day(s).
| Time | Temp. | Humidity | Pressure | Rain* | Wind** | Luminosity | Snow |
|---|---|---|---|---|---|---|---|
| 1777828941 | 12.78° C | 30% | 1012.6 hPa | 0 mm | - | 360 W/m² | - |
| 1777828637 | 12.78° C | 31% | 1012.6 hPa | 0 mm | - | 414 W/m² | - |
| 1777828334 | 12.78° C | 31% | 1013 hPa | 0 mm | - | 1003 W/m² | - |
| 1777828031 | 11.67° C | 31% | 1012.7 hPa | 0 mm | - | 1086 W/m² | - |
| 1777827728 | 12.22° C | 33% | 1013 hPa | 0 mm | - | 251 W/m² | - |
| 1777827425 | 12.22° C | 32% | 1012.8 hPa | 0 mm | - | 473 W/m² | - |
| 1777827121 | 12.22° C | 30% | 1012.8 hPa | 0 mm | - | 303 W/m² | - |
| 1777826818 | 12.78° C | 30% | 1012.8 hPa | 0 mm | - | 302 W/m² | - |
| 1777826515 | 12.22° C | 32% | 1012.8 hPa | 0 mm | - | 247 W/m² | - |
| 1777826212 | 12.22° C | 33% | 1013 hPa | 0 mm | - | 177 W/m² | - |
| 1777825909 | 11.67° C | 33% | 1013.2 hPa | 0 mm | - | 129 W/m² | - |
| 1777825606 | 11.11° C | 34% | 1013.1 hPa | 0 mm | - | 219 W/m² | - |
| 1777825304 | 11.11° C | 35% | 1013.1 hPa | 0 mm | - | 1146 W/m² | - |
| 1777825001 | 11.67° C | 33% | 1013.2 hPa | 0 mm | - | 249 W/m² | - |
| 1777824697 | 12.22° C | 33% | 1013.2 hPa | 0 mm | - | 287 W/m² | - |
| 1777824394 | 11.67° C | 36% | 1013.2 hPa | 0 mm | - | 329 W/m² | - |
| 1777824090 | 10.56° C | 39% | 1013.3 hPa | 0 mm | - | 996 W/m² | - |
| 1777823786 | 10.56° C | 38% | 1013.4 hPa | 0 mm | - | 319 W/m² | - |
| 1777823484 | 10° C | 41% | 1013.5 hPa | 0 mm | - | 320 W/m² | - |
| 1777823181 | 10.56° C | 38% | 1013.5 hPa | 0 mm | - | 237 W/m² | - |
| 1777822879 | 11.67° C | 35% | 1013.4 hPa | 0 mm | - | 238 W/m² | - |
| 1777822576 | 11.67° C | 37% | 1013.4 hPa | 0 mm | - | 260 W/m² | - |
| 1777822274 | 11.11° C | 39% | 1013.4 hPa | 0 mm | - | 360 W/m² | - |
| 1777821971 | 10.56° C | 39% | 1013.5 hPa | 0 mm | - | 1013 W/m² | - |
| 1777821669 | 10.56° C | 38% | 1013.7 hPa | 0 mm | - | 285 W/m² | - |
* Rain latest hour (hover to see other rain measurements)
** Current wind speed in m/s (hover to see current wind gust speed)